Regional Weather Roundup
Issued by NWS Cleveland, OH

Home | Current Version | Previous Version | Text Only | Print | Product List | Glossary Off
Versions: 1 2 3 4 5 6 7 8 9 10 11 12 13 14 15 16 17 18 19 20 21 22 23 24 25 26 27 28 29 30 31 32 33 34 35 36 37 38 39 40 41 42 43 44 45 46 47 48 49 50

427
ASUS41 KCLE 040312
RWRCLE
OHIO REGIONAL WEATHER ROUNDUP
NATIONAL WEATHER SERVICE WILMINGTON, OH
1100 PM EDT TUE MAY 03 2016

NOTE: "FAIR" INDICATES FEW OR NO CLOUDS BELOW 12,000 FEET WITH NO
SIGNIFICANT WEATHER AND/OR OBSTRUCTIONS TO VISIBILITY.

OHZ001>008-015>018-024>027-034-035-043-044-040400-
   NORTHWEST OHIO

CITY           SKY/WX    TMP DP  RH WIND       PRES   REMARKS
DEFIANCE       FAIR      52  43  71 SW7       29.80F
FINDLAY        FAIR      49  42  77 SW7       29.81F
TOLEDO EXPRESS FAIR      51  40  65 S6        29.79F
TOLEDO EXEC    FAIR      52  42  69 S7        29.80F
LIMA           FAIR      51  43  74 S6        29.82F
$$

OHZ009>014-019>023-028>033-038-089-040400-
   NORTHEAST OHIO

CITY           SKY/WX    TMP DP  RH WIND       PRES   REMARKS
CLE-HOPKINS    FAIR      49  39  68 S5        29.84F
CLE-LAKEFRONT  FAIR      54  38  54 SE3       29.81F
CUY CO. ARPT   CLEAR     50  39  66 SE5       29.83S
LORAIN-ELYRIA  FAIR      48  39  71 CALM      29.82F
ASHTABULA      FAIR      43  41  93 CALM      29.82F
AKRON-CANTON   MOCLDY    53  39  59 CALM      29.82F
WOOSTER        CLOUDY    50  46  86 CALM      29.83F
MANSFIELD      MOCLDY    50  45  83 S5        29.83S
YOUNGSTOWN     MOCLDY    49  37  63 CALM      29.82F
$$

OHZ042-051>053-060>062-070>072-077>081-040400-
  SOUTHWEST OHIO

CITY           SKY/WX    TMP DP  RH WIND       PRES   REMARKS
CINC-COVINGTON FAIR      52  50  93 SW5       29.87S
CINC-LUNKEN    CLOUDY    54  52  93 CALM      29.88S
HAMILTON       FAIR      52  48  86 W3        29.87F
DAYTON         MOCLDY    50  46  86 SW5       29.85F
WRIGHT-PAT AFB FAIR      53  47  80 CALM      29.85S
DAYTON GENERAL CLOUDY    53  46  77 CALM      29.85F
WILMINGTON     CLOUDY    53  47  79 W6        29.86S
$$

OHZ036-037-039>041-045>050-054>059-063>069-073>076-082>088-040400-
  CENTRAL AND SOUTHEAST OHIO

CITY           SKY/WX    TMP DP  RH WIND       PRES   REMARKS
COLUMBUS       CLOUDY    53  46  77 W5        29.84S
OSU AIRPORT    CLOUDY    54  47  77 SW3       29.84S
BOLTON FIELD   CLOUDY    54  47  78 W3        29.85S
RICKENBACK AFB CLOUDY    53  48  82 W3        29.84S
NEWARK         CLOUDY    55  49  80 CALM      29.83F
MARION         MOCLDY    51  44  77 SW5       29.84S
LANCASTER      CLOUDY    54  49  83 CALM      29.85S
ZANESVILLE     CLOUDY    56  49  77 CALM      29.84S
NEW PHILLY     CLOUDY    55  45  68 CALM      29.83F
$$




USA.gov is the U.S. government's official web portal to all federal, state and local government web resources and services.